Location: Unspecified
(38.9820°N, 94.4650°W)
Time: 10:27:00
(UTC-05:00)

Resurs 1-4 Rocket - Visible Passes

Search period start: 17 April 2014 00:00
Search period end: 27 April 2014 00:00
Orbit: 800 x 815 km, 98.3° (Epoch: 16 April)

Date Brightness Start Highest point End Pass type
(mag) Time Alt. Az. Time Alt. Az. Time Alt. Az.
17 Apr 2.8 05:25:43 10° NNE 05:30:54 56° E 05:36:03 10° S visible
18 Apr 3.7 05:01:41 10° NNE 05:06:24 33° E 05:11:06 10° SSE visible
19 Apr 4.5 04:38:05 10° NE 04:41:49 20° E 04:45:33 10° SE visible
20 Apr 5.0 04:15:50 10° ENE 04:17:09 11° E 04:18:28 10° ESE visible
20 Apr 2.1 05:52:19 10° N 05:57:36 81° WNW 06:02:51 10° SSW visible
21 Apr 2.7 05:27:59 10° NNE 05:33:12 60° E 05:38:23 10° S visible
22 Apr 3.6 05:03:55 10° NNE 05:08:43 35° E 05:13:29 10° SSE visible
23 Apr 4.4 04:40:14 10° NE 04:44:08 21° E 04:48:02 10° SE visible
24 Apr 4.9 04:17:37 10° ENE 04:19:29 12° E 04:21:21 10° ESE visible
24 Apr 2.1 05:54:37 10° N 05:59:53 77° WNW 06:05:08 10° SSW visible
25 Apr 2.6 05:30:15 10° NNE 05:35:30 64° ESE 05:40:43 10° S visible
26 Apr 3.5 05:06:08 10° NNE 05:11:01 37° E 05:15:53 10° SSE visible
